ARIANE 2 DEB, 27043

Orbit data source: Space-Track

ARIANE 2 DEB, 27043 is space debris in HEO originally from a launch on Fri, 27 Jan 1989 UTC launched from the French Guiana (FRGUI). Debris objects in space refer to the collection of defunct objects orbiting the Earth. Examples of debris include non-operational satellites, rocket bodies, and fragments generated from explosions, collisions, or faulty payload assembly.

Loading next visibility...
Identifier
27043, 1989-006Y
Orbit
HEO
Country
Flag of FRFR
Related business
Manufacturer
EADS/LV
Mission
Spacecraft
Bus & Motor
Unknown
Mass
Unknown
Launch date (UTC)
1989-01-27 (37 years ago)
Launch vehicle
Unknown
Launch site
French Guiana (FRGUI)
Object type
Payload
Rocket body
Debris
Shape & HBR
Unknown shape, 0.3 m
Radar Cross Section
Medium (>0.1 m² and <1 m²)

Expand to show TLE details & history
Last TLE update: 9 hours ago

TLE from 9 hours ago
0 ARIANE 2 DEB
1 27043U 89006Y   25286.91914553  .00000110  00000-0  62109-2 0  9991
2 27043   8.5435   5.2677 7125447 229.5271  39.1219  2.25079393198966
Epoch: 2025-10-13T22:03Z
TLE epoch observation values (Epoch: 2025-10-13T22:03:34.173Z)
Latitude
-0.43777°
Longitude
8.63773°
Altitude
14,991.505 km
Speed
4.593 km/s
True Right ascension
00h 08m 58s
True Declination
0° 26' 13"
Sunlit
Object was in daylight at epoch
Visualization orbit readout
Latitude
Unknown
Longitude
Unknown
Altitude
Unknown
Speed
Unknown
Apparent Right ascension
Unknown
Apparent Declination
Unknown
Sunlit
N/A
Visualization observer readout
Local Sidereal Time
01:23:18
Azimuth
Unknown
Elevation
Unknown
Doppler factor
Unknown
Orbital elements
Apogee altitude
35,750.304 km
Perigee altitude
693.237 km
Semi-major axis
24,599.907 km
Eccentricity
0.71254
Inclination
8.5435°
RAAN
5.2677°
Arg. of periapsis
229.5271°
True anomaly
127.33002°
Mean anomaly
39.1219°
Eccentric anomaly
79.22835°
Mean motion
0.56253 °/min
Orbital period
639.97 mins
BSTAR
0.0062109
Loading maneuver chart data...
Computing Atmospheric mass density...
Loading historical data...
Loading historical data...
Loading historical data...
Loading historical data...
Loading historical data...
Loading historical data...
Loading historical data...

Documentation

Showing up to 5 results
|